Date,Installs,Update checks
2020-11-23,3,0
2020-11-24,1,0
2020-11-25,1,0
2020-11-26,0,1
2020-11-27,0,0
2020-11-28,0,1
2020-11-29,1,0
2020-11-30,0,0
2020-12-01,1,0
2020-12-02,0,0
2020-12-03,0,0
2020-12-04,0,0
2020-12-05,0,1
2020-12-06,1,1
2020-12-07,0,0
2020-12-08,1,2
2020-12-09,1,4
2020-12-10,0,3
2020-12-11,0,2
2020-12-12,0,1
2020-12-13,1,0
2020-12-14,0,4
2020-12-15,0,3
2020-12-16,1,4
2020-12-17,0,1
2020-12-18,0,2
2020-12-19,0,1
2020-12-20,0,2
2020-12-21,3,2
2020-12-22,5,0
2020-12-23,0,4
2020-12-24,0,0
2020-12-25,2,2
2020-12-26,1,3
2020-12-27,1,4
2020-12-28,2,3
2020-12-29,1,2
2020-12-30,0,2
2020-12-31,0,2
2021-01-01,0,5
2021-01-02,0,4
2021-01-03,0,1
2021-01-04,0,2
2021-01-05,0,1
2021-01-06,2,3
2021-01-07,0,3
2021-01-08,0,5
2021-01-09,0,3
2021-01-10,0,2
2021-01-11,1,2
2021-01-12,0,3
2021-01-13,0,2
2021-01-14,0,2
2021-01-15,0,1
2021-01-16,0,2
2021-01-17,0,3
2021-01-18,0,4
2021-01-19,0,1
2021-01-20,2,4
2021-01-21,3,6
2021-01-22,2,3
2021-01-23,0,3
2021-01-24,0,1
2021-01-25,0,4
2021-01-26,0,3
2021-01-27,0,4
2021-01-28,0,3
2021-01-29,0,2
2021-01-30,0,1
2021-01-31,0,1
2021-02-01,1,3
2021-02-02,0,1
2021-02-03,0,3
2021-02-04,1,2
2021-02-05,1,1
2021-02-06,0,4
2021-02-07,0,6
2021-02-08,1,3
2021-02-09,1,3
2021-02-10,4,6
2021-02-11,3,5
2021-02-12,0,3
2021-02-13,0,5
2021-02-14,0,3
2021-02-15,1,10
2021-02-16,1,12
2021-02-17,0,8
2021-02-18,0,10
2021-02-19,0,8
2021-02-20,0,12
2021-02-21,0,10
2021-02-22,0,14
2021-02-23,0,10
2021-02-24,0,8
2021-02-25,0,11
2021-02-26,0,11
2021-02-27,0,11
2021-02-28,0,15
2021-03-01,0,12
2021-03-02,0,8
2021-03-03,0,11
2021-03-04,0,16
2021-03-05,0,12
2021-03-06,0,14
2021-03-07,0,8
2021-03-08,0,13
2021-03-09,0,7
2021-03-10,0,8
2021-03-11,0,9
2021-03-12,0,8
2021-03-13,1,6
2021-03-14,0,8
2021-03-15,0,11
2021-03-16,1,5
2021-03-17,0,8
2021-03-18,0,11
2021-03-19,1,6
2021-03-20,0,11
2021-03-21,0,10
2021-03-22,0,6
2021-03-23,0,7
2021-03-24,0,9
2021-03-25,0,7
2021-03-26,0,11
2021-03-27,0,8
2021-03-28,0,8
2021-03-29,0,9
2021-03-30,0,7
2021-03-31,0,6
2021-04-01,0,9
2021-04-02,0,7
2021-04-03,0,4
2021-04-04,1,6
2021-04-05,1,9
2021-04-06,0,8
2021-04-07,1,9
2021-04-08,1,11
2021-04-09,0,12
2021-04-10,0,10
2021-04-11,0,13
2021-04-12,0,9
2021-04-13,0,11
2021-04-14,1,8
2021-04-15,0,11
2021-04-16,0,16
2021-04-17,0,9
2021-04-18,0,13
2021-04-19,0,14
2021-04-20,0,13
2021-04-21,1,14
2021-04-22,1,11
2021-04-23,1,15
2021-04-24,0,16
2021-04-25,1,15
2021-04-26,0,17
2021-04-27,0,19
2021-04-28,0,16
2021-04-29,0,12
2021-04-30,0,12
2021-05-01,0,14
2021-05-02,0,9
2021-05-03,0,8
2021-05-04,0,13
2021-05-05,0,11
2021-05-06,1,15
2021-05-07,1,15
2021-05-08,0,14
2021-05-09,2,11
2021-05-10,3,12
2021-05-11,0,16
2021-05-12,0,15
2021-05-13,0,19
2021-05-14,0,12
2021-05-15,0,17
2021-05-16,0,9
2021-05-17,0,16
2021-05-18,0,18
2021-05-19,0,15
2021-05-20,0,17
2021-05-21,1,20
2021-05-22,1,13
2021-05-23,0,17
2021-05-24,0,14
2021-05-25,1,15
2021-05-26,0,14
2021-05-27,0,16
2021-05-28,0,19
2021-05-29,0,15
2021-05-30,1,14
2021-05-31,0,18
2021-06-01,0,13
2021-06-02,0,15
2021-06-03,0,15
2021-06-04,0,16
2021-06-05,0,8
2021-06-06,0,16
2021-06-07,0,18
2021-06-08,1,19
2021-06-09,0,18
2021-06-10,0,17
2021-06-11,0,16
2021-06-12,1,15
2021-06-13,0,16
2021-06-14,0,14
2021-06-15,0,16
2021-06-16,0,13
2021-06-17,0,22
2021-06-18,0,19
2021-06-19,0,12
2021-06-20,0,12
2021-06-21,1,17
2021-06-22,0,17
2021-06-23,1,16
2021-06-24,1,16
2021-06-25,0,14
2021-06-26,1,15
2021-06-27,0,9
2021-06-28,0,19
2021-06-29,0,16
2021-06-30,1,16
2021-07-01,0,14
2021-07-02,1,16
2021-07-03,0,14
2021-07-04,0,12
2021-07-05,0,11
2021-07-06,0,16
2021-07-07,0,13
2021-07-08,0,15
2021-07-09,0,16
2021-07-10,0,13
2021-07-11,0,14
2021-07-12,0,14
2021-07-13,0,19
2021-07-14,0,16
2021-07-15,0,21
2021-07-16,0,16
2021-07-17,1,13
2021-07-18,0,0
2021-07-19,0,6
2021-07-20,1,17
2021-07-21,0,17
2021-07-22,0,20
2021-07-23,0,18
2021-07-24,0,14
2021-07-25,0,18
2021-07-26,0,15
2021-07-27,0,20
2021-07-28,0,18
2021-07-29,0,23
2021-07-30,0,17
2021-07-31,0,16
2021-08-01,0,14
2021-08-02,1,20
2021-08-03,1,21
2021-08-04,0,19
2021-08-05,0,18
2021-08-06,2,20
2021-08-07,0,19
2021-08-08,0,15
2021-08-09,0,21
2021-08-10,0,18
2021-08-11,0,20
2021-08-12,0,14
2021-08-13,0,18
2021-08-14,0,12
2021-08-15,0,17
2021-08-16,0,17
2021-08-17,0,14
2021-08-18,0,16
2021-08-19,1,16
2021-08-20,1,14
2021-08-21,0,13
2021-08-22,0,14
2021-08-23,1,18
2021-08-24,1,21
2021-08-25,0,18
2021-08-26,2,17
2021-08-27,0,19
2021-08-28,0,20
2021-08-29,0,11
2021-08-30,0,16
2021-08-31,0,15
2021-09-01,0,24
2021-09-02,0,15
2021-09-03,0,14
2021-09-04,0,17
2021-09-05,0,17
2021-09-06,0,16
2021-09-07,0,15
2021-09-08,0,18
2021-09-09,0,21
2021-09-10,0,17
2021-09-11,0,20
2021-09-12,0,16
2021-09-13,0,16
2021-09-14,0,22
2021-09-15,1,20
2021-09-16,2,22
2021-09-17,2,22
2021-09-18,0,14
2021-09-19,0,22
2021-09-20,0,19
2021-09-21,0,21
2021-09-22,0,21
2021-09-23,0,21
2021-09-24,0,20
2021-09-25,0,16
2021-09-26,0,19
2021-09-27,0,27
2021-09-28,0,21
2021-09-29,1,20
2021-09-30,0,19
2021-10-01,0,19
2021-10-02,0,15
2021-10-03,0,14
2021-10-04,0,17
2021-10-05,0,21
2021-10-06,0,18
2021-10-07,0,19
2021-10-08,0,16
2021-10-09,0,19
2021-10-10,0,17
2021-10-11,0,20
2021-10-12,0,21
2021-10-13,0,18
2021-10-14,0,17
2021-10-15,0,15
2021-10-16,1,16
2021-10-17,0,16
2021-10-18,0,17
2021-10-19,0,18
2021-10-20,0,22
2021-10-21,0,23
2021-10-22,0,21
2021-10-23,0,14
2021-10-24,0,16
2021-10-25,0,18
2021-10-26,0,20
2021-10-27,0,24
2021-10-28,0,17
2021-10-29,0,21
2021-10-30,0,17
2021-10-31,2,18
2021-11-01,0,20
2021-11-02,0,21
2021-11-03,1,20
2021-11-04,0,15
2021-11-05,2,18
2021-11-06,3,19
2021-11-07,1,21
2021-11-08,1,23
2021-11-09,1,26
2021-11-10,0,26
2021-11-11,0,26
2021-11-12,0,24
2021-11-13,4,17
2021-11-14,2,26
2021-11-15,4,23
2021-11-16,3,25
2021-11-17,5,27
2021-11-18,3,30
2021-11-19,1,29
2021-11-20,7,28
2021-11-21,4,24
2021-11-22,1,33
2021-11-23,3,26
2021-11-24,3,33
2021-11-25,1,28
2021-11-26,1,32
2021-11-27,4,20
2021-11-28,1,26
2021-11-29,4,39
2021-11-30,3,38
2021-12-01,3,41
2021-12-02,1,40
2021-12-03,3,36
2021-12-04,1,38
2021-12-05,2,39
2021-12-06,1,36
2021-12-07,0,37
2021-12-08,1,46
2021-12-09,2,33
2021-12-10,2,41
2021-12-11,1,38
2021-12-12,3,36
2021-12-13,2,41
2021-12-14,0,41
2021-12-15,0,47
2021-12-16,0,40
2021-12-17,1,36
2021-12-18,0,38
2021-12-19,5,40
2021-12-20,6,41
2021-12-21,3,37
2021-12-22,6,42
2021-12-23,4,48
2021-12-24,1,43
2021-12-25,5,43
2021-12-26,6,45
2021-12-27,4,53
2021-12-28,3,51
2021-12-29,0,55
2021-12-30,0,53
2021-12-31,0,51
2022-01-01,3,40
2022-01-02,3,46
2022-01-03,1,45
2022-01-04,3,51
2022-01-05,2,58
2022-01-06,4,52
2022-01-07,3,59
2022-01-08,1,45
2022-01-09,4,2
2022-01-10,5,0
2022-01-11,0,63
2022-01-12,0,57
2022-01-13,6,50
2022-01-14,3,54
2022-01-15,3,63
2022-01-16,2,49
2022-01-17,4,62
2022-01-18,2,60
2022-01-19,5,59
2022-01-20,2,58
2022-01-21,3,53
2022-01-22,4,56
2022-01-23,2,61
2022-01-24,2,57
2022-01-25,0,59
2022-01-26,0,60
2022-01-27,0,54
2022-01-28,5,58
2022-01-29,3,60
2022-01-30,0,53
2022-01-31,2,60
2022-02-01,1,51
2022-02-02,3,67
2022-02-03,2,54
2022-02-04,1,57
2022-02-05,0,61
2022-02-06,3,57
2022-02-07,1,65
2022-02-08,0,61
2022-02-09,3,75
2022-02-10,3,61
2022-02-11,3,63
2022-02-12,5,77
2022-02-13,4,66
2022-02-14,2,71
2022-02-15,2,74
2022-02-16,1,67
2022-02-17,4,76
2022-02-18,2,74
2022-02-19,5,72
2022-02-20,3,66
2022-02-21,5,76
2022-02-22,2,81
2022-02-23,0,79
2022-02-24,0,77
2022-02-25,5,72
2022-02-26,4,72
2022-02-27,1,67
2022-02-28,2,78
2022-03-01,3,75
2022-03-02,3,71
2022-03-03,4,69
2022-03-04,0,73
2022-03-05,1,82
2022-03-06,0,64
2022-03-07,2,68
2022-03-08,2,68
2022-03-09,3,81
2022-03-10,1,76
2022-03-11,2,79
2022-03-12,6,84
2022-03-13,0,75
2022-03-14,1,78
2022-03-15,1,74
2022-03-16,1,86
2022-03-17,4,87
2022-03-18,1,76
2022-03-19,1,71
2022-03-20,4,72
2022-03-21,2,83
2022-03-22,0,71
2022-03-23,0,86
2022-03-24,2,81
2022-03-25,3,81
2022-03-26,2,72
2022-03-27,2,70
2022-03-28,0,80
2022-03-29,0,75
2022-03-30,0,80
2022-03-31,1,82
2022-04-01,1,79
2022-04-02,3,75
2022-04-03,1,83
2022-04-04,3,81
2022-04-05,4,72
2022-04-06,0,82
2022-04-07,1,80
2022-04-08,2,77
2022-04-09,4,71
2022-04-10,0,80
2022-04-11,0,75
2022-04-12,0,82
2022-04-13,2,83
2022-04-14,1,78
2022-04-15,0,81
2022-04-16,3,74
2022-04-17,2,65
2022-04-18,2,88
2022-04-19,2,76
2022-04-20,3,80
2022-04-21,0,79
2022-04-22,1,81
2022-04-23,1,75
2022-04-24,0,86
2022-04-25,0,83
2022-04-26,1,84
2022-04-27,4,82
2022-04-28,4,88
2022-04-29,5,72
2022-04-30,2,82
2022-05-01,0,69
2022-05-02,1,91
2022-05-03,1,74
2022-05-04,0,79
2022-05-05,2,86
2022-05-06,1,77
2022-05-07,2,80
2022-05-08,1,73
2022-05-09,1,85
2022-05-10,1,84
2022-05-11,1,83
2022-05-12,1,87
2022-05-13,2,89
2022-05-14,3,81
2022-05-15,3,64
2022-05-16,0,93
2022-05-17,1,92
2022-05-18,0,87
2022-05-19,0,79
2022-05-20,4,89
2022-05-21,6,73
2022-05-22,3,82
2022-05-23,3,82
2022-05-24,2,87
2022-05-25,2,96
2022-05-26,1,98
2022-05-27,2,81
2022-05-28,0,68
2022-05-29,2,76
2022-05-30,1,98
2022-05-31,1,93
2022-06-01,0,86
2022-06-02,2,92
2022-06-03,0,90
2022-06-04,0,69
2022-06-05,1,78
2022-06-06,3,96
2022-06-07,0,103
2022-06-08,2,86
2022-06-09,3,85
2022-06-10,1,92
2022-06-11,2,78
2022-06-12,1,85
2022-06-13,0,100
2022-06-14,1,93
2022-06-15,2,91
2022-06-16,2,91
2022-06-17,2,97
2022-06-18,1,72
2022-06-19,1,93
2022-06-20,1,95
2022-06-21,2,95
2022-06-22,0,86
2022-06-23,0,94
2022-06-24,0,76
2022-06-25,0,88
2022-06-26,2,85
2022-06-27,1,91
2022-06-28,1,85
2022-06-29,0,100
2022-06-30,0,91
2022-07-01,0,95
2022-07-02,2,80
2022-07-03,0,72
2022-07-04,0,90
2022-07-05,2,90
2022-07-06,1,87
2022-07-07,0,80
2022-07-08,0,93
2022-07-09,0,74
2022-07-10,0,77
2022-07-11,0,100
2022-07-12,0,89
2022-07-13,1,85
2022-07-14,4,86
2022-07-15,0,84
2022-07-16,0,74
2022-07-17,1,76
2022-07-18,1,85
2022-07-19,0,90
2022-07-20,2,100
2022-07-21,1,85
2022-07-22,0,86
2022-07-23,3,89
2022-07-24,3,66
2022-07-25,2,95
2022-07-26,1,88
2022-07-27,1,96
2022-07-28,0,94
2022-07-29,4,94
2022-07-30,0,81
2022-07-31,0,80
2022-08-01,1,96
2022-08-02,3,98
2022-08-03,2,99
2022-08-04,2,94
2022-08-05,1,103
2022-08-06,0,88
2022-08-07,1,90
2022-08-08,0,88
2022-08-09,1,107
2022-08-10,2,93
2022-08-11,3,94
2022-08-12,1,101
2022-08-13,2,84
2022-08-14,2,83
2022-08-15,3,85
2022-08-16,7,97
2022-08-17,0,109
2022-08-18,1,100
2022-08-19,2,94
2022-08-20,0,94
2022-08-21,1,91
2022-08-22,2,97
2022-08-23,0,99
2022-08-24,0,95
2022-08-25,0,81
2022-08-26,2,88
2022-08-27,2,81
2022-08-28,0,86
2022-08-29,4,94
2022-08-30,5,99
2022-08-31,1,89
2022-09-01,1,95
2022-09-02,2,98
2022-09-03,0,90
2022-09-04,3,81
2022-09-05,1,85
2022-09-06,1,107
2022-09-07,1,102
2022-09-08,3,113
2022-09-09,3,94
2022-09-10,3,82
2022-09-11,1,92
2022-09-12,2,101
2022-09-13,0,96
2022-09-14,1,99
2022-09-15,3,106
2022-09-16,1,95
2022-09-17,3,89
2022-09-18,4,86
2022-09-19,3,98
2022-09-20,0,101
2022-09-21,1,107
2022-09-22,0,105
2022-09-23,2,90
2022-09-24,1,86
2022-09-25,1,92
2022-09-26,2,90
2022-09-27,2,86
2022-09-28,3,108
2022-09-29,3,104
2022-09-30,1,88
2022-10-01,5,95
2022-10-02,6,100
2022-10-03,1,92
2022-10-04,1,101
2022-10-05,1,110
2022-10-06,2,107
2022-10-07,0,98
2022-10-08,1,92
2022-10-09,7,100
2022-10-10,0,102
2022-10-11,0,104
2022-10-12,2,110
2022-10-13,0,106
2022-10-14,0,111
2022-10-15,6,95
2022-10-16,0,101
2022-10-17,0,95
2022-10-18,2,115
2022-10-19,3,118
2022-10-20,3,104
2022-10-21,2,105
2022-10-22,3,98
2022-10-23,5,91
2022-10-24,2,107
2022-10-25,2,103
2022-10-26,0,102
2022-10-27,2,116
2022-10-28,3,105
2022-10-29,1,90
2022-10-30,3,99
2022-10-31,1,105
2022-11-01,3,106
2022-11-02,6,107
2022-11-03,4,119
2022-11-04,1,109
2022-11-05,1,92
2022-11-06,0,97
2022-11-07,2,114
2022-11-08,3,106
2022-11-09,6,111
2022-11-10,3,112
2022-11-11,4,114
2022-11-12,3,99
2022-11-13,1,90
2022-11-14,1,111
2022-11-15,1,107
2022-11-16,1,103
2022-11-17,2,104
2022-11-18,1,93
2022-11-19,4,92
2022-11-20,2,89
2022-11-21,1,103
2022-11-22,2,109
2022-11-23,4,105
2022-11-24,3,107
2022-11-25,3,99
2022-11-26,2,99
2022-11-27,2,90
2022-11-28,3,97
2022-11-29,2,93
2022-11-30,5,102
2022-12-01,0,112
2022-12-02,0,118
2022-12-03,0,92
2022-12-04,4,99
2022-12-05,6,101
2022-12-06,2,103
2022-12-07,2,102
2022-12-08,2,94
2022-12-09,2,94
2022-12-10,0,89
2022-12-11,2,95
2022-12-12,1,101
2022-12-13,1,93
2022-12-14,1,94
2022-12-15,0,99
2022-12-16,1,103
2022-12-17,0,89
2022-12-18,0,88
2022-12-19,0,102
2022-12-20,1,111
2022-12-21,2,94
2022-12-22,0,97
2022-12-23,1,85
2022-12-24,1,73
2022-12-25,3,82
2022-12-26,1,91
2022-12-27,0,93
2022-12-28,1,89
2022-12-29,3,91
2022-12-30,0,88
2022-12-31,0,94
2023-01-01,1,89
2023-01-02,1,102
2023-01-03,2,110
2023-01-04,2,107
2023-01-05,2,121
2023-01-06,1,101
2023-01-07,2,111
2023-01-08,1,103
2023-01-09,1,106
2023-01-10,3,113
2023-01-11,3,109
2023-01-12,2,111
2023-01-13,1,113
2023-01-14,4,104
2023-01-15,6,104
2023-01-16,2,116
2023-01-17,0,117
2023-01-18,1,121
2023-01-19,0,107
2023-01-20,1,106
2023-01-21,2,108
2023-01-22,2,99
2023-01-23,1,111
2023-01-24,3,117
2023-01-25,2,110
2023-01-26,1,114
2023-01-27,0,102
2023-01-28,1,116
2023-01-29,0,96
2023-01-30,0,109
2023-01-31,4,110
2023-02-01,1,109
2023-02-02,3,109
2023-02-03,1,103
2023-02-04,0,107
2023-02-05,0,103
2023-02-06,0,107
2023-02-07,0,116
2023-02-08,0,117
2023-02-09,1,114
2023-02-10,1,113
2023-02-11,0,109
2023-02-12,3,109
2023-02-13,0,108
2023-02-14,5,121
2023-02-15,1,108
2023-02-16,3,111
2023-02-17,3,98
2023-02-18,3,96
2023-02-19,1,106
2023-02-20,4,109
2023-02-21,3,110
2023-02-22,3,114
2023-02-23,0,106
2023-02-24,0,113
2023-02-25,1,99
2023-02-26,1,113
2023-02-27,3,109
2023-02-28,2,111
2023-03-01,1,117
2023-03-02,2,114
2023-03-03,0,118
2023-03-04,3,104
2023-03-05,4,112
2023-03-06,0,103
2023-03-07,1,117
2023-03-08,1,104
2023-03-09,0,114
2023-03-10,2,114
2023-03-11,2,86
2023-03-12,2,114
2023-03-13,0,105
2023-03-14,0,116
2023-03-15,0,113
2023-03-16,3,116
2023-03-17,0,110
2023-03-18,0,91
2023-03-19,0,93
2023-03-20,0,117
2023-03-21,0,120
2023-03-22,0,125
2023-03-23,2,113
2023-03-24,3,121
2023-03-25,4,105
2023-03-26,1,106
2023-03-27,2,108
2023-03-28,1,107
2023-03-29,1,102
2023-03-30,0,128
2023-03-31,0,99
2023-04-01,1,95
2023-04-02,3,103
2023-04-03,3,117
2023-04-04,3,116
2023-04-05,3,109
2023-04-06,3,112
2023-04-07,2,108
2023-04-08,2,97
2023-04-09,2,104
2023-04-10,1,96
2023-04-11,1,104
2023-04-12,0,115
2023-04-13,0,115
2023-04-14,3,118
2023-04-15,1,97
2023-04-16,0,95
2023-04-17,1,116
2023-04-18,2,111
2023-04-19,4,100
2023-04-20,0,101
2023-04-21,1,118
2023-04-22,0,101
2023-04-23,4,102
2023-04-24,3,109
2023-04-25,1,100
2023-04-26,2,115
2023-04-27,0,116
2023-04-28,0,105
2023-04-29,0,99
2023-04-30,0,104
2023-05-01,0,102
2023-05-02,1,108
2023-05-03,0,109
2023-05-04,1,118
2023-05-05,2,127
2023-05-06,2,99
2023-05-07,1,112
2023-05-08,1,105
2023-05-09,2,123
2023-05-10,0,126
2023-05-11,0,113
2023-05-12,1,135
2023-05-13,5,103
2023-05-14,0,102
2023-05-15,1,111
2023-05-16,1,111
2023-05-17,2,113
2023-05-18,0,112
2023-05-19,0,116
2023-05-20,1,98
2023-05-21,1,113
2023-05-22,0,103
2023-05-23,0,120
2023-05-24,0,122
2023-05-25,3,119
2023-05-26,5,113
2023-05-27,4,103
2023-05-28,4,105
2023-05-29,1,110
2023-05-30,0,118
2023-05-31,0,121
2023-06-01,1,110
2023-06-02,0,126
2023-06-03,2,107
2023-06-04,2,101
2023-06-05,2,120
2023-06-06,2,121
2023-06-07,2,114
2023-06-08,0,128
2023-06-09,2,120
2023-06-10,2,104
2023-06-11,4,108
2023-06-12,4,115
2023-06-13,4,121
2023-06-14,3,126
2023-06-15,2,119
2023-06-16,3,121
2023-06-17,2,114
2023-06-18,3,118
2023-06-19,1,131
2023-06-20,6,131
2023-06-21,1,139
2023-06-22,1,132
2023-06-23,4,118
2023-06-24,0,117
2023-06-25,0,118
2023-06-26,1,131
2023-06-27,0,128
2023-06-28,0,137
2023-06-29,0,124
2023-06-30,0,130
2023-07-01,3,104
2023-07-02,0,113
2023-07-03,0,127
2023-07-04,1,128
2023-07-05,0,130
2023-07-06,1,119
2023-07-07,0,120
2023-07-08,1,126
2023-07-09,4,109
2023-07-10,2,121
2023-07-11,1,113
2023-07-12,3,137
2023-07-13,0,114
2023-07-14,1,121
2023-07-15,1,96
2023-07-16,1,124
2023-07-17,2,129
2023-07-18,0,118
2023-07-19,1,117
2023-07-20,0,128
2023-07-21,0,117
2023-07-22,0,103
2023-07-23,0,120
2023-07-24,1,118
2023-07-25,3,117
2023-07-26,1,117
2023-07-27,2,116
2023-07-28,0,109
2023-07-29,0,98
2023-07-30,1,107
2023-07-31,3,126
2023-08-01,4,122
2023-08-02,1,119
2023-08-03,0,130
2023-08-04,0,124
2023-08-05,0,108
2023-08-06,2,110
2023-08-07,1,137
2023-08-08,2,141
2023-08-09,1,119
2023-08-10,2,127
2023-08-11,1,125
2023-08-12,2,122
2023-08-13,0,108
2023-08-14,1,114
2023-08-15,0,127
2023-08-16,1,121
2023-08-17,2,129
2023-08-18,2,122
2023-08-19,3,107
2023-08-20,2,114
2023-08-21,2,123
2023-08-22,0,133
2023-08-23,1,139
2023-08-24,1,130
2023-08-25,1,114
2023-08-26,1,107
2023-08-27,2,100
2023-08-28,0,141
2023-08-29,2,138
2023-08-30,1,142
2023-08-31,1,117
2023-09-01,1,128
2023-09-02,3,110
2023-09-03,0,121
2023-09-04,2,131
2023-09-05,2,129
2023-09-06,1,141
2023-09-07,0,128
2023-09-08,1,125
2023-09-09,2,118
2023-09-10,1,123
2023-09-11,2,152
2023-09-12,0,139
2023-09-13,0,141
2023-09-14,0,131
2023-09-15,3,143
2023-09-16,0,122
2023-09-17,0,128
2023-09-18,3,129
2023-09-19,1,138
2023-09-20,0,123
2023-09-21,1,139
2023-09-22,2,132
2023-09-23,3,114
2023-09-24,1,130
2023-09-25,1,139
2023-09-26,5,132
2023-09-27,3,132
2023-09-28,1,128
2023-09-29,1,128
2023-09-30,1,115
2023-10-01,0,130
2023-10-02,1,138
2023-10-03,2,130
2023-10-04,0,133
2023-10-05,0,130
2023-10-06,0,121
2023-10-07,0,126
2023-10-08,0,100
2023-10-09,2,135
2023-10-10,1,135
2023-10-11,1,138
2023-10-12,0,137
2023-10-13,1,129
2023-10-14,1,106
2023-10-15,0,126
2023-10-16,1,126
2023-10-17,1,134
2023-10-18,3,119
2023-10-19,0,139
2023-10-20,0,132
2023-10-21,2,106
2023-10-22,1,109
2023-10-23,3,138
2023-10-24,3,130
2023-10-25,2,143
2023-10-26,3,132
2023-10-27,4,124
2023-10-28,1,122
2023-10-29,1,100
2023-10-30,0,118
2023-10-31,4,137
2023-11-01,1,132
2023-11-02,5,148
2023-11-03,2,132
2023-11-04,0,134
2023-11-05,2,128
2023-11-06,3,126
2023-11-07,4,137
2023-11-08,2,137
2023-11-09,4,152
2023-11-10,1,144
2023-11-11,2,144
2023-11-12,0,117
2023-11-13,3,132
2023-11-14,3,143
2023-11-15,6,141
2023-11-16,7,141
2023-11-17,3,134
2023-11-18,3,136
2023-11-19,4,141
2023-11-20,1,130
2023-11-21,1,153
2023-11-22,5,139
2023-11-23,1,139
2023-11-24,1,131
2023-11-25,7,138
2023-11-26,1,138
2023-11-27,0,146
2023-11-28,1,157
2023-11-29,4,163
2023-11-30,6,146
2023-12-01,4,160
2023-12-02,3,153
2023-12-03,2,137
2023-12-04,0,149
2023-12-05,5,103
2023-12-06,3,97
2023-12-07,1,88
2023-12-08,1,140
2023-12-09,1,94
2023-12-10,4,90
2023-12-11,0,93
2023-12-12,2,95
2023-12-13,1,92
2023-12-14,0,86
2023-12-15,1,106
2023-12-16,1,70
2023-12-17,1,75
2023-12-18,3,79
2023-12-19,1,93
2023-12-20,2,88
2023-12-21,0,92
2023-12-22,1,88
2023-12-23,1,69
2023-12-24,2,74
2023-12-25,0,69
2023-12-26,1,79
2023-12-27,0,75
2023-12-28,4,87
2023-12-29,1,86
2023-12-30,4,86
2023-12-31,2,78
2024-01-01,2,72
2024-01-02,1,84
2024-01-03,1,88
2024-01-04,0,91
2024-01-05,3,91
2024-01-06,0,75
2024-01-07,0,83
2024-01-08,1,86
2024-01-09,2,93
2024-01-10,0,90
2024-01-11,1,103
2024-01-12,0,96
2024-01-13,1,88
2024-01-14,8,86
2024-01-15,4,94
2024-01-16,2,100
2024-01-17,4,98
2024-01-18,3,100
2024-01-19,5,100
2024-01-20,3,85
2024-01-21,1,86
2024-01-22,0,102
2024-01-23,0,128
2024-01-24,1,139
2024-01-25,0,119
2024-01-26,0,134
2024-01-27,1,120
2024-01-28,0,122
2024-01-29,0,136
2024-01-30,1,122
2024-01-31,2,128
2024-02-01,2,138
2024-02-02,3,128
2024-02-03,4,121
2024-02-04,2,115
2024-02-05,1,128
2024-02-06,1,127
2024-02-07,4,134
2024-02-08,1,132
2024-02-09,0,137
2024-02-10,1,106
2024-02-11,1,110
2024-02-12,3,129
2024-02-13,2,137
2024-02-14,1,131
2024-02-15,1,132
2024-02-16,2,138
2024-02-17,1,113
2024-02-18,4,118
2024-02-19,2,135
2024-02-20,4,142
2024-02-21,2,121
2024-02-22,1,138
2024-02-23,3,134
2024-02-24,3,130
2024-02-25,2,124
2024-02-26,4,137
2024-02-27,2,141
2024-02-28,2,156
2024-02-29,2,153
2024-03-01,0,137
2024-03-02,1,131
2024-03-03,0,132
2024-03-04,2,138
2024-03-05,0,146
2024-03-06,2,151
2024-03-07,1,149
2024-03-08,3,126
2024-03-09,0,147
2024-03-10,2,126
2024-03-11,2,146
2024-03-12,1,146
2024-03-13,0,154
2024-03-14,0,167
2024-03-15,2,150
2024-03-16,0,126
2024-03-17,1,125
2024-03-18,0,147
2024-03-19,1,149
2024-03-20,3,150
2024-03-21,1,149
2024-03-22,2,163
2024-03-23,1,129
2024-03-24,1,143
2024-03-25,1,165
2024-03-26,2,170
2024-03-27,2,153
2024-03-28,2,156
2024-03-29,0,144
2024-03-30,0,128
2024-03-31,0,133
2024-04-01,1,136
2024-04-02,2,160
2024-04-03,1,160
2024-04-04,2,165
2024-04-05,0,147
2024-04-06,3,130
2024-04-07,4,139
2024-04-08,2,169
2024-04-09,3,154
2024-04-10,1,179
2024-04-11,0,153
2024-04-12,6,157
2024-04-13,1,141
2024-04-14,0,138
2024-04-15,1,153
2024-04-16,2,165
2024-04-17,0,162
2024-04-18,2,167
2024-04-19,1,156
2024-04-20,2,154
2024-04-21,3,147
2024-04-22,2,169
2024-04-23,1,159
2024-04-24,2,151
2024-04-25,0,171
2024-04-26,1,163
2024-04-27,1,149
2024-04-28,1,148
2024-04-29,3,171
2024-04-30,1,161
2024-05-01,1,148
2024-05-02,3,170
2024-05-03,3,153
2024-05-04,0,141
2024-05-05,0,143
2024-05-06,0,164
2024-05-07,1,159
2024-05-08,1,168
2024-05-09,1,157
2024-05-10,1,164
2024-05-11,1,151
2024-05-12,2,149
2024-05-13,0,164
2024-05-14,1,175
2024-05-15,2,175
2024-05-16,0,160
2024-05-17,0,164
2024-05-18,1,146
2024-05-19,0,157
2024-05-20,1,165
2024-05-21,1,164
2024-05-22,1,179
2024-05-23,1,166
2024-05-24,2,167
2024-05-25,2,150
2024-05-26,1,151
2024-05-27,4,168
2024-05-28,4,176
2024-05-29,4,163
2024-05-30,1,176
2024-05-31,1,172
2024-06-01,2,145
2024-06-02,2,148
2024-06-03,2,161
2024-06-04,0,167
2024-06-05,0,166
2024-06-06,3,166
2024-06-07,1,152
2024-06-08,1,132
2024-06-09,1,147
2024-06-10,1,174
2024-06-11,0,3
